Content
SEND FEEDBACK

Daily
Averages
Monthly
Summary
French Polynesia

HITIAA, FRENCH POLYNESIA


Home > Oceania > French Polynesia
Elevation: 7 feet     Latitude: 17 33S     Longitude: 149 37W

WEATHER
 
SELECT A DAY
Number of Records: 208,079;   Date Range: 6/30/96 - 7/20/14
 
SHARE

PRINT THIS DATA

[ ← Previous Day ]
WEATHER ALMANAC - JANUARY 8, 2014
[ Next Day → ]
[ °C ]   °F
Weather ElementAverageHighLow
Temperature78.7 °F84.2 °F (8:00 am)73.4 °F (10:30 am)
Dewpoint71 °F75.2 °F (12:00 pm)66 °F (2:00 am)
Humidity76.7 %89 % (11:00 am)57 % (2:00 am)
Barometer29.89 in29.95 in (8:00 pm)29.83 in (2:00 am)
Wind Speed8.6 mph16.1 mph (2:05 pm)
Wind Gust31.1 mph (9:30 am)
Weather ElementAverage
Visibility7.2 mi
Wind DirectionENE (65.1 °)

Weather ElementTotal
Precipitation---
Cooling Degree Days13.8 (Base 65)
Growing Degree Days28.8 (Base 50)
Averaged from 55 records on January 8, 2014
WEATHER CONDITIONS BREAKOUT
WIND DIRECTION BREAKOUT
WEATHER BY HOUR - JANUARY 8, 2014
[ °C ]   °F
Local TimeTemperatureDewpointHumidityBarometerVisibilityWind DirectionWind SpeedGust SpeedPrecipitationEventsConditions
12:30 AM77.0 °F69.8 °F78 %29.89 in6.2 miENE (60°)8.1 mphMostly Cloudy
1:00 AM77.0 °F69.8 °F78 %29.89 in6.2 miENE (60°)8.1 mphMostly Cloudy
1:30 AM77.0 °F69.8 °F78 %29.86 in6.2 miENE (60°)8.1 mphMostly Cloudy
2:00 AM79.0 °F66.0 °F57 %29.85 in12.0 miENE (70°)8.1 mphPartly Cloudy
2:00 AM78.8 °F66.2 °F65 %29.83 in6.2 miENE (70°)8.1 mphMostly Cloudy
2:30 AM78.8 °F69.8 °F74 %29.83 in6.2 miENE (60°)8.1 mphMostly Cloudy
3:00 AM78.8 °F69.8 °F74 %29.83 in6.2 miENE (60°)5.8 mphMostly Cloudy
3:30 AM78.8 °F68.0 °F69 %29.83 in6.2 miENE (70°)5.8 mph
4:00 AM78.8 °F69.8 °F74 %29.83 in6.2 miENE (60°)6.9 mph
4:30 AM78.8 °F69.8 °F74 %29.83 in6.2 miENE (60°)8.1 mph
5:00 AM80.0 °F71.0 °F69 %29.87 in34.0 miENE (60°)9.2 mphClear
5:00 AM80.6 °F71.6 °F74 %29.86 in6.2 miENE (60°)9.2 mph
5:30 AM80.6 °F69.8 °F70 %29.86 in6.2 miENE (70°)8.1 mph
6:00 AM80.6 °F69.8 °F70 %29.89 in6.2 miENE (60°)8.1 mphMostly Cloudy
6:30 AM80.6 °F69.8 °F70 %29.89 in6.2 miENE (60°)8.1 mphMostly Cloudy
7:00 AM82.4 °F71.6 °F70 %29.89 in6.2 miENE (60°)9.2 mphMostly Cloudy
7:30 AM82.4 °F71.6 °F70 %29.89 in6.2 miNE (50°)12.7 mphMostly Cloudy
8:00 AM83.0 °F72.0 °F63 %29.91 in9.0 miENE (60°)11.5 mphOvercast
8:00 AM84.2 °F73.4 °F70 %29.89 in6.2 miENE (60°)11.5 mphMostly Cloudy
8:30 AM84.2 °F73.4 °F70 %29.89 in6.2 miNE (50°)11.5 mphMostly Cloudy
9:00 AM82.4 °F73.4 °F74 %29.92 in6.2 miNE (40°)5.8 mphMostly Cloudy
9:30 AM77.0 °F68.0 °F74 %29.92 in3.1 miEast (80°)13.8 mph31.1 mphRainRain Showers
10:00 AM77.0 °F71.6 °F83 %29.92 in1.2 miNNW (340°)4.6 mphRainRain Showers
10:30 AM73.4 °F69.8 °F88 %29.92 in6.2 miVariable2.3 mphMostly Cloudy
11:00 AM75.0 °F72.0 °F86 %29.92 in16.0 miWNW (300°)2.3 mphRainLight Rain Showers
11:00 AM75.2 °F71.6 °F89 %29.92 in6.2 miVariable2.3 mphMostly Cloudy
11:30 AM77.0 °F73.4 °F89 %29.89 in6.2 miVariable2.3 mphRainLight Rain
12:00 PM78.8 °F75.2 °F89 %29.89 in6.2 miENE (70°)5.8 mphRainLight Rain
12:30 PM80.6 °F75.2 °F84 %29.86 in6.2 miENE (60°)5.8 mphRainLight Rain
1:00 PM82.4 °F73.4 °F74 %29.86 in6.2 miENE (60°)6.9 mphRainLight Rain
1:30 PM82.4 °F75.2 °F79 %29.86 in6.2 miNNE (30°)9.2 mphRainLight Rain
2:00 PM80.0 °F72.0 °F70 %29.88 in9.0 miNNE (30°)11.5 mphRainLight Rain
2:05 PM78.8 °F71.6 °F78 %29.89 in6.2 miNE (50°)16.1 mphRainLight Rain
2:30 PM77.0 °F71.6 °F83 %29.86 in6.2 miEast (100°)13.8 mphMostly Cloudy
3:00 PM80.6 °F69.8 °F70 %29.86 in6.2 miEast (80°)11.5 mphMostly Cloudy
3:30 PM82.4 °F69.8 °F66 %29.86 in6.2 miNE (50°)10.4 mphMostly Cloudy
4:00 PM80.6 °F71.6 °F74 %29.86 in6.2 miNE (50°)13.8 mphMostly Cloudy
4:30 PM80.6 °F71.6 °F74 %29.89 in6.2 miNE (40°)12.7 mphMostly Cloudy
5:00 PM78.0 °F72.0 °F78 %29.90 in9.0 miNNE (30°)15.0 mphOvercast
5:04 PM77.0 °F73.4 °F89 %29.89 in6.2 miNNE (30°)16.1 mphMostly Cloudy
5:30 PM77.0 °F73.4 °F89 %29.92 in6.2 miENE (60°)10.4 mphMostly Cloudy
6:00 PM75.2 °F71.6 °F89 %29.92 in6.2 miENE (70°)9.2 mphRainLight Rain
6:30 PM77.0 °F73.4 °F89 %29.92 in6.2 miENE (60°)5.8 mphRainLight Rain
7:00 PM77.0 °F71.6 °F83 %29.92 in6.2 miENE (60°)5.8 mphMostly Cloudy
7:30 PM77.0 °F71.6 °F83 %29.92 in6.2 miNE (50°)8.1 mphMostly Cloudy
8:00 PM76.0 °F70.0 °F78 %29.95 in11.0 miENE (70°)9.2 mphRainLight Rain
8:00 PM77.0 °F69.8 °F78 %29.95 in6.2 miENE (70°)9.2 mphRainLight Rain
8:30 PM77.0 °F69.8 °F78 %29.95 in6.2 miENE (60°)6.9 mphRainLight Rain
9:00 PM77.0 °F71.6 °F83 %29.95 in6.2 miENE (60°)6.9 mphMostly Cloudy
9:30 PM77.0 °F71.6 °F83 %29.95 in6.2 miENE (60°)6.9 mphRainLight Rain
10:00 PM77.0 °F69.8 °F78 %29.95 in6.2 miENE (60°)6.9 mphRainLight Rain
10:30 PM77.0 °F69.8 °F78 %29.95 in6.2 miNE (50°)5.8 mphRainLight Rain
11:00 PM78.0 °F70.0 °F69 %29.95 in12.0 miENE (60°)11.5 mphRainLight Rain
11:00 PM77.0 °F69.8 °F78 %29.95 in6.2 miENE (60°)11.5 mphMostly Cloudy
11:30 PM77.0 °F68.0 °F74 %29.95 in6.2 miENE (70°)4.6 mphMostly Cloudy
Hourly data recorded from NTAA, located miles away from Hitiaa, French Polynesia







STORIES FROM OUR PARTNERS